Regional Weather Roundup
Issued by NWS Newport/Morehead, NC

Current Version | Previous Version | Graphics & Text | Print | Product List | Glossary On
Versions: 1 2 3 4 5 6 7 8 9 10 11 12 13 14 15 16 17 18 19 20 21 22 23 24 25 26 27 28 29 30 31 32 33 34 35 36 37 38 39 40 41 42 43 44 45 46 47 48 49 50
000 ASUS42 KMHX 300610 RWRMHX WEATHER ROUNDUP FOR EASTERN NORTH CAROLINA NATIONAL WEATHER SERVICE NEWPORT/MOREHEAD CITY NC 200 AM EDT THU OCT 30 2014 NOTE: "FAIR" INDICATES FEW OR NO CLOUDS BELOW 12,000 FEET WITH NO SIGNIFICANT WEATHER AND/OR OBSTRUCTIONS TO VISIBILITY NCZ015>017-031-032-045>047-102-103-300700- NORTH COAST CITY SKY/WX TMP DP RH WIND PRES REMARKS EDENTON LGT RAIN 56 54 94 N12 30.00R ELIZABETH CITY CLOUDY 57 52 83 N13 29.96S KITTY HAWK RAIN 60 57 92 N12G22 29.94S MANTEO RAIN 60 57 90 N17G23 29.94F $$ NCZ045>047-081-094-103-104-300700- CENTRAL COAST CITY SKY/WX TMP DP RH WIND PRES REMARKS FRISCO CLOUDY 65 62 90 N10 29.92S SWANQUARTER N/A 61 N/A N/A NE7 29.91S $$ NCZ095-097-098-100-101-300700- SOUTHERN COAST CITY SKY/WX TMP DP RH WIND PRES REMARKS BEAUFORT LGT RAIN 68 65 90 W9 29.93S CEDAR ISLAND N/A 66 N/A N/A NW14 29.97S JACKSONVILLE CLOUDY 66 65 96 NW18G24 29.94S PINEY ISLAND LGT RAIN 67 61 81 N8 29.93S WILMINGTON RAIN 68 65 90 NW10 29.94R $$ NCZ011>013-027>030-043-044-078>080-089-090>093-098-300700- COASTAL PLAIN CITY SKY/WX TMP DP RH WIND PRES REMARKS AHOSKIE NOT AVBL CLINTON CLOUDY 59 56 90 N5 29.98S ELIZABETHTOWN CLOUDY 61 58 89 N3 29.98R GOLDSBORO CLOUDY 60 60 98 N2 29.97R GREENVILLE CLOUDY 59 57 94 N6 30.00S HAVELOCK DRIZZLE 67 64 90 NW7 29.95S KENANSVILLE LGT RAIN 59 56 89 N5 29.99R KINSTON CLOUDY 60 57 91 NW7 29.99S NEW BERN CLOUDY 64 60 87 N8 29.96R RICHLANDS CLOUDY 63 57 82 N9 29.97R ROCKY MOUNT CLOUDY 59 56 89 N7 29.99F WASHINGTON CLOUDY 60 57 91 N9 29.98R WHITEVILLE CLOUDY 61 58 87 NE7 29.97R $$ AMZ130-135-150-152-154-156-158-170-250-252-270-ANZ085-086-088-633-658-670-300700- MARINE OBSERVATIONS STATION/POSITION TIME TEMP WIND PRES WAVE SWELL AIR SEA DIR/SP/G HT/PER HT/PER (UTC) (F) (DEG/KT/KT) (MB) (FT/S) (FT/S) CHESAPEAKE LIGHT 0500 57 10/ 20/ 23 1015.7 64 E VA BEACH 0600 63 67 360/ 19/ 23 1012.8 5/ 5 DUCK 0600 60 68 10/ 21/ 27 1013.1 2 E DUCK NOT AVBL 10 NE DUCK 0600 67 N/A 5/ 5 OREGON INLET 0600 62 68 360/ 13/ 21 1013.5 13E OREGON INLT 0600 70 N/A 3/ 3 HATTERAS CG 0600 67 72 350/ 14/ 16 1013.7 DIAMOND BUOY 0600 75 230/ 17/ 21 1012.6 4/ 5 17 S OCRACOKE 0500 VRB 17/ 21 1013.3 CAPE LOOKOUT 0500 72 250/ 10/ 13 1013.4 BEAUFORT LAB 0600 69 71 300/ 5/ 8 1013.0 30 SE NEW RIVER 0600 74 74 260/ 12/ 14 1012.9 3/ 5 5 SE WRIGHTSVLE 0500 68 71 270/ 4/ 6 N/A 225 S CAPE HAT 0502 75 76 220/ 8/ 8 1016.0 2/10 2/10 41 SE CHARLESTON 0600 77 77 210/ 14/ 17 1013.8 2/ 4 2/ 9 $$

USA.gov is the U.S. government's official web portal to all federal, state and local government web resources and services.